ARG1395 TNCA-SACO

Flight info

Callsign ARG1395
Flight time 6h 29m
Altitude FL320
Route DATO1E DATOR DENSU AMBAS UBLAX UG444 EJA UP525 RCO UN525 DONKA
Aircraft B38M/M-SDE2E3FGHIRWXY/LB1

Departure

Time 2026-05-06 14:18
Airport Queen Beatrix International Airport (TNCA)

Arrival

Time 2026-05-06 20:47
Airport Ingeniero Aeronáutico Ambrosio L.V. Taravella International Airport (SACO)
Time Latitude Longitude Altitude Speed Heading
2026-05-06 13:34 12.50245 -70.00644 49 ft 0 kts 16°
2026-05-06 13:59 12.50231 -70.00648 49 ft 4 kts
2026-05-06 14:00 12.50204 -70.00647 49 ft 4 kts 346°
2026-05-06 14:00 12.50185 -70.00641 44 ft 1 kts 340°
2026-05-06 14:00 12.50182 -70.00640 49 ft 0 kts 340°
2026-05-06 14:05 12.50184 -70.00642 49 ft 1 kts 317°
2026-05-06 14:05 12.50184 -70.00652 46 ft 2 kts 259°
2026-05-06 14:05 12.50179 -70.00678 49 ft 5 kts 259°
2026-05-06 14:06 12.50182 -70.00721 49 ft 7 kts 279°
2026-05-06 14:06 12.50196 -70.00783 49 ft 10 kts 284°
2026-05-06 14:06 12.50213 -70.00856 47 ft 11 kts 283°
2026-05-06 14:06 12.50228 -70.00935 49 ft 12 kts 269°
2026-05-06 14:07 12.50233 -70.01007 48 ft 11 kts 288°
2026-05-06 14:07 12.50242 -70.01086 49 ft 12 kts 246°
2026-05-06 14:07 12.50234 -70.01171 49 ft 13 kts 282°
2026-05-06 14:07 12.50257 -70.01269 45 ft 15 kts 285°
2026-05-06 14:08 12.50283 -70.01378 49 ft 17 kts 283°
2026-05-06 14:08 12.50311 -70.01498 49 ft 18 kts 283°
2026-05-06 14:08 12.50342 -70.01629 45 ft 20 kts 283°
2026-05-06 14:08 12.50376 -70.01773 48 ft 22 kts 283°
2026-05-06 14:09 12.50413 -70.01927 47 ft 23 kts 284°
2026-05-06 14:09 12.50452 -70.02091 47 ft 22 kts 283°
2026-05-06 14:09 12.50488 -70.02246 47 ft 23 kts 283°
2026-05-06 14:09 12.50528 -70.02412 46 ft 25 kts 283°
2026-05-06 14:10 12.50568 -70.02582 46 ft 21 kts 283°
2026-05-06 14:10 12.50539 -70.02721 42 ft 22 kts 246°
2026-05-06 14:10 12.50436 -70.02801 35 ft 19 kts 131°
2026-05-06 14:10 12.50418 -70.02701 37 ft 10 kts 103°
2026-05-06 14:11 12.50415 -70.02689 37 ft 0 kts 104°
2026-05-06 14:11 12.50404 -70.02641 37 ft 21 kts 102°
2026-05-06 14:11 12.50350 -70.02419 38 ft 45 kts 103°
2026-05-06 14:11 12.50257 -70.02028 43 ft 68 kts 103°
2026-05-06 14:12 12.50128 -70.01486 49 ft 88 kts 103°
2026-05-06 14:12 12.49954 -70.00824 56 ft 95 kts 103°
2026-05-06 14:12 12.49914 -70.00526 60 ft 23 kts 349°
2026-05-06 14:12 12.49944 -70.00698 54 ft 26 kts 285°
2026-05-06 14:13 12.49981 -70.00834 55 ft 12 kts 284°
2026-05-06 14:13 12.50015 -70.00988 51 ft 24 kts 284°
2026-05-06 14:13 12.50057 -70.01160 49 ft 13 kts 287°
2026-05-06 14:13 12.50064 -70.01186 52 ft 11 kts 284°
2026-05-06 14:14 12.50096 -70.01339 50 ft 25 kts 283°
2026-05-06 14:14 12.50137 -70.01503 49 ft 23 kts 284°
2026-05-06 14:14 12.50175 -70.01661 47 ft 23 kts 283°
2026-05-06 14:14 12.50210 -70.01817 45 ft 23 kts 283°
2026-05-06 14:15 12.50247 -70.01974 44 ft 22 kts 285°
2026-05-06 14:15 12.50286 -70.02133 41 ft 24 kts 283°
2026-05-06 14:15 12.50325 -70.02302 39 ft 25 kts 282°
2026-05-06 14:15 12.50366 -70.02470 38 ft 23 kts 289°
2026-05-06 14:16 12.50434 -70.02575 38 ft 13 kts 283°
2026-05-06 14:16 12.50404 -70.02607 37 ft 4 kts 141°
2026-05-06 14:16 12.50390 -70.02584 37 ft 4 kts 113°
2026-05-06 14:16 12.50387 -70.02573 37 ft 0 kts 104°
2026-05-06 14:17 12.50385 -70.02566 34 ft 11 kts 104°
2026-05-06 14:17 12.50313 -70.02263 38 ft 75 kts 103°
2026-05-06 14:17 12.50149 -70.01566 48 ft 125 kts 103°
2026-05-06 14:18 12.49914 -70.00573 162 ft 151 kts 103°
2026-05-06 14:18 12.49632 -69.99574 739 ft 153 kts 105°
2026-05-06 14:18 12.49387 -69.98453 1240 ft 157 kts 102°
2026-05-06 14:18 12.48856 -69.97489 1826 ft 172 kts 138°
2026-05-06 14:19 12.47597 -69.97161 2038 ft 213 kts 185°
2026-05-06 14:19 12.46154 -69.97693 2592 ft 232 kts 198°
2026-05-06 14:19 12.44803 -69.98780 2900 ft 263 kts 231°
2026-05-06 14:19 12.44088 -70.00495 3708 ft 273 kts 258°
2026-05-06 14:20 12.44174 -70.02497 4141 ft 294 kts 283°
2026-05-06 14:20 12.44697 -70.04527 4876 ft 296 kts 282°
2026-05-06 14:20 12.45179 -70.06576 5605 ft 299 kts 282°
2026-05-06 14:20 12.45671 -70.08648 6319 ft 302 kts 285°
2026-05-06 14:21 12.46642 -70.10542 6992 ft 304 kts 312°
2026-05-06 14:21 12.48141 -70.12079 7592 ft 309 kts 316°
2026-05-06 14:21 12.49671 -70.13620 8304 ft 310 kts 317°
2026-05-06 14:21 12.51219 -70.15168 8958 ft 314 kts 317°
2026-05-06 14:22 12.52787 -70.16725 9663 ft 315 kts 317°
2026-05-06 14:22 12.54369 -70.18292 10245 ft 321 kts 317°
2026-05-06 14:22 12.56018 -70.19924 10482 ft 340 kts 317°
2026-05-06 14:22 12.57761 -70.21650 10664 ft 358 kts 317°
2026-05-06 14:23 12.59581 -70.23451 10977 ft 370 kts 317°
2026-05-06 14:23 12.61423 -70.25274 11617 ft 370 kts 317°
2026-05-06 14:23 12.63282 -70.27114 12141 ft 375 kts 317°
2026-05-06 14:23 12.65156 -70.28971 12746 ft 377 kts 317°
2026-05-06 14:24 12.67046 -70.30843 13285 ft 381 kts 317°
2026-05-06 14:24 12.68953 -70.32733 13853 ft 384 kts 317°
2026-05-06 14:24 12.70873 -70.34634 14382 ft 385 kts 318°
2026-05-06 14:24 12.72795 -70.36540 14952 ft 386 kts 318°
2026-05-06 14:25 12.74723 -70.38451 15502 ft 387 kts 318°
2026-05-06 14:25 12.76650 -70.40363 16087 ft 386 kts 319°
2026-05-06 14:25 12.78575 -70.42271 16679 ft 386 kts 318°
2026-05-06 14:25 12.80498 -70.44179 17246 ft 385 kts 318°
2026-05-06 14:26 12.82414 -70.46080 17804 ft 385 kts 319°
2026-05-06 14:26 12.84331 -70.47983 18351 ft 384 kts 318°
2026-05-06 14:26 12.86248 -70.49886 18794 ft 385 kts 318°
2026-05-06 14:26 12.88172 -70.51796 19185 ft 387 kts 318°
2026-05-06 14:27 12.90104 -70.53716 19573 ft 388 kts 318°
2026-05-06 14:27 12.91993 -70.55695 19964 ft 392 kts 311°
2026-05-06 14:27 12.93367 -70.58113 20368 ft 398 kts 293°
2026-05-06 14:27 12.93994 -70.60886 20710 ft 406 kts 276°
2026-05-06 14:28 12.93896 -70.63782 21129 ft 409 kts 268°
2026-05-06 14:28 12.93657 -70.66694 21438 ft 413 kts 268°
2026-05-06 14:28 12.93395 -70.69619 21798 ft 414 kts 268°
2026-05-06 14:28 12.93116 -70.72558 22140 ft 416 kts 267°
2026-05-06 14:29 12.92827 -70.75512 22474 ft 419 kts 267°
2026-05-06 14:29 12.92531 -70.78482 22799 ft 421 kts 267°
2026-05-06 14:29 12.92233 -70.81465 23125 ft 423 kts 267°
2026-05-06 14:29 12.91933 -70.84460 23442 ft 425 kts 267°
2026-05-06 14:30 12.91631 -70.87473 23732 ft 426 kts 267°
2026-05-06 14:30 12.91328 -70.90491 23997 ft 428 kts 267°
2026-05-06 14:30 12.91024 -70.93521 24278 ft 429 kts 267°
2026-05-06 14:30 12.90719 -70.96555 24561 ft 430 kts 267°
2026-05-06 14:31 12.90412 -70.99598 24829 ft 431 kts 267°
2026-05-06 14:31 12.90104 -71.02653 25094 ft 432 kts 267°
2026-05-06 14:31 12.89796 -71.05712 25365 ft 433 kts 267°
2026-05-06 14:31 12.89485 -71.08783 25640 ft 434 kts 266°
2026-05-06 14:32 12.89174 -71.11858 25896 ft 436 kts 266°
2026-05-06 14:32 12.88861 -71.14945 26149 ft 437 kts 266°
2026-05-06 14:32 12.88548 -71.18036 26408 ft 438 kts 266°
2026-05-06 14:32 12.88233 -71.21140 26666 ft 439 kts 266°
2026-05-06 14:33 12.87916 -71.24249 26922 ft 440 kts 266°
2026-05-06 14:33 12.87599 -71.27369 27167 ft 442 kts 266°
2026-05-06 14:33 12.87281 -71.30496 27415 ft 443 kts 266°
2026-05-06 14:33 12.86961 -71.33632 27657 ft 444 kts 266°
2026-05-06 14:34 12.86640 -71.36771 27903 ft 445 kts 266°
2026-05-06 14:34 12.86318 -71.39925 28133 ft 446 kts 265°
2026-05-06 14:34 12.85994 -71.43088 28374 ft 448 kts 266°
2026-05-06 14:34 12.85669 -71.46259 28593 ft 449 kts 266°
2026-05-06 14:35 12.85343 -71.49437 28829 ft 450 kts 265°
2026-05-06 14:35 12.85015 -71.52626 29043 ft 451 kts 265°
2026-05-06 14:35 12.84686 -71.55822 29262 ft 453 kts 265°
2026-05-06 14:35 12.84356 -71.59028 29481 ft 454 kts 265°
2026-05-06 14:36 12.84025 -71.62240 29688 ft 455 kts 265°
2026-05-06 14:36 12.83693 -71.65461 29882 ft 456 kts 265°
2026-05-06 14:36 12.83358 -71.68692 30085 ft 457 kts 265°
2026-05-06 14:36 12.83024 -71.71931 30266 ft 458 kts 265°
2026-05-06 14:37 12.82688 -71.75171 30441 ft 459 kts 265°
2026-05-06 14:37 12.82351 -71.78418 30632 ft 460 kts 265°
2026-05-06 14:37 12.81972 -71.81667 30809 ft 461 kts 259°
2026-05-06 14:37 12.80998 -71.84782 31002 ft 463 kts 245°
2026-05-06 14:38 12.79249 -71.87552 31248 ft 465 kts 232°
2026-05-06 14:38 12.77151 -71.90068 31461 ft 465 kts 231°
2026-05-06 14:38 12.75031 -71.92561 31676 ft 465 kts 231°
2026-05-06 14:38 12.72903 -71.95032 31908 ft 464 kts 230°
2026-05-06 14:39 12.70755 -71.97504 32010 ft 464 kts 230°
2026-05-06 14:39 12.68615 -71.99955 31988 ft 462 kts 230°
2026-05-06 14:39 12.64352 -72.04833 31990 ft 461 kts 231°
2026-05-06 14:40 12.60081 -72.09719 31994 ft 461 kts 230°
2026-05-06 14:40 12.55811 -72.14601 31990 ft 461 kts 230°
2026-05-06 14:41 12.51539 -72.19483 31990 ft 461 kts 230°
2026-05-06 14:41 12.47266 -72.24362 31987 ft 461 kts 231°
2026-05-06 14:42 12.42994 -72.29238 31982 ft 461 kts 230°
2026-05-06 14:42 12.38719 -72.34115 31985 ft 461 kts 230°
2026-05-06 14:43 12.34445 -72.38990 31983 ft 461 kts 231°
2026-05-06 14:43 12.30171 -72.43859 31984 ft 461 kts 230°
2026-05-06 14:44 12.25891 -72.48734 31982 ft 461 kts 230°
2026-05-06 14:45 12.19473 -72.56039 31980 ft 461 kts 230°
2026-05-06 14:45 12.15192 -72.60911 31980 ft 462 kts 230°
2026-05-06 14:46 12.10904 -72.65785 31978 ft 462 kts 230°
2026-05-06 14:46 12.06613 -72.70662 31978 ft 462 kts 230°
2026-05-06 14:47 12.02320 -72.75537 31973 ft 463 kts 230°
2026-05-06 14:47 11.98022 -72.80417 31974 ft 463 kts 230°
2026-05-06 14:48 11.93723 -72.85294 31970 ft 463 kts 230°
2026-05-06 14:48 11.89423 -72.90170 31973 ft 463 kts 230°
2026-05-06 14:49 11.85119 -72.95048 31964 ft 463 kts 230°
2026-05-06 14:49 11.80817 -72.99921 31960 ft 463 kts 230°
2026-05-06 14:50 11.76509 -73.04799 31958 ft 464 kts 230°
2026-05-06 14:50 11.72195 -73.09682 31958 ft 464 kts 230°
2026-05-06 14:51 11.67877 -73.14566 31958 ft 465 kts 230°
2026-05-06 14:51 11.63556 -73.19451 31957 ft 465 kts 230°
2026-05-06 14:52 11.59234 -73.24334 31959 ft 465 kts 230°
2026-05-06 14:52 11.54906 -73.29224 31965 ft 466 kts 230°
2026-05-06 14:53 11.50572 -73.34116 31966 ft 466 kts 229°
2026-05-06 14:53 11.46235 -73.39009 31969 ft 466 kts 230°
2026-05-06 14:54 11.41893 -73.43906 31971 ft 467 kts 229°
2026-05-06 14:54 11.37547 -73.48805 31979 ft 467 kts 229°
2026-05-06 14:55 11.33195 -73.53709 31984 ft 468 kts 229°
2026-05-06 14:55 11.28837 -73.58616 32000 ft 468 kts 229°
2026-05-06 14:56 11.24477 -73.63524 32011 ft 468 kts 229°
2026-05-06 14:56 11.19580 -73.67821 32025 ft 470 kts 207°
2026-05-06 14:56 11.16511 -73.68943 32032 ft 473 kts 193°
2026-05-06 14:57 11.13262 -73.69502 32053 ft 476 kts 190°
2026-05-06 14:57 11.06716 -73.70468 32070 ft 476 kts 189°
2026-05-06 14:58 11.00158 -73.71347 32080 ft 477 kts 189°
2026-05-06 14:58 10.93587 -73.72206 32106 ft 477 kts 189°
2026-05-06 14:59 10.87014 -73.73065 32111 ft 477 kts 189°
2026-05-06 14:59 10.80437 -73.73923 32107 ft 477 kts 188°
2026-05-06 15:00 10.73860 -73.74781 32112 ft 478 kts 188°
2026-05-06 15:00 10.67281 -73.75638 32096 ft 477 kts 188°
2026-05-06 15:01 10.60707 -73.76493 32087 ft 477 kts 188°
2026-05-06 15:01 10.54141 -73.77348 32069 ft 477 kts 188°
2026-05-06 15:02 10.47574 -73.78202 32027 ft 476 kts 188°
2026-05-06 15:02 10.41015 -73.79055 32014 ft 476 kts 188°
2026-05-06 15:03 10.34453 -73.79907 31999 ft 476 kts 188°
2026-05-06 15:03 10.27897 -73.80759 31972 ft 476 kts 188°
2026-05-06 15:04 10.21337 -73.81611 31956 ft 476 kts 188°
2026-05-06 15:04 10.14777 -73.82463 31941 ft 476 kts 188°
2026-05-06 15:05 10.08219 -73.83314 31931 ft 476 kts 188°
2026-05-06 15:05 10.01652 -73.84165 31922 ft 476 kts 188°
2026-05-06 15:06 9.95095 -73.85015 31914 ft 476 kts 188°
2026-05-06 15:06 9.88538 -73.85865 31913 ft 476 kts 188°
2026-05-06 15:07 9.81987 -73.86713 31910 ft 475 kts 188°
2026-05-06 15:07 9.75448 -73.87560 31915 ft 476 kts 188°
2026-05-06 15:08 9.68893 -73.88409 31906 ft 475 kts 188°
2026-05-06 15:08 9.62344 -73.89256 31914 ft 475 kts 188°
2026-05-06 15:09 9.55796 -73.90103 31911 ft 475 kts 187°
2026-05-06 15:09 9.49248 -73.90949 31912 ft 475 kts 187°
2026-05-06 15:10 9.42693 -73.91796 31912 ft 476 kts 187°
2026-05-06 15:10 9.36271 -73.92626 31910 ft 476 kts 187°
2026-05-06 15:11 9.29712 -73.93473 31914 ft 476 kts 187°
2026-05-06 15:11 9.23146 -73.94321 31913 ft 476 kts 187°
2026-05-06 15:12 9.16585 -73.95167 31913 ft 477 kts 187°
2026-05-06 15:12 9.10019 -73.96014 31915 ft 477 kts 187°
2026-05-06 15:13 9.03439 -73.96627 31905 ft 476 kts 175°
2026-05-06 15:13 8.96848 -73.96094 31916 ft 477 kts 175°
2026-05-06 15:14 8.90247 -73.95572 31921 ft 477 kts 175°
2026-05-06 15:14 8.83650 -73.95041 31926 ft 476 kts 175°
2026-05-06 15:15 8.77057 -73.94511 31929 ft 476 kts 175°
2026-05-06 15:15 8.70472 -73.93981 31930 ft 475 kts 175°
2026-05-06 15:16 8.63895 -73.93452 31929 ft 475 kts 175°
2026-05-06 15:16 8.57319 -73.92924 31936 ft 475 kts 175°
2026-05-06 15:17 8.50742 -73.92395 31942 ft 475 kts 175°
2026-05-06 15:17 8.44165 -73.91867 31945 ft 475 kts 175°
2026-05-06 15:18 8.37596 -73.91340 31946 ft 475 kts 175°
2026-05-06 15:18 8.31024 -73.90812 31948 ft 474 kts 175°
2026-05-06 15:19 8.24463 -73.90286 31955 ft 475 kts 175°
2026-05-06 15:19 8.17882 -73.89758 31957 ft 475 kts 175°
2026-05-06 15:20 8.11307 -73.89231 31960 ft 475 kts 175°
2026-05-06 15:20 8.04726 -73.88704 31955 ft 475 kts 175°
2026-05-06 15:21 7.98144 -73.88176 31956 ft 475 kts 175°
2026-05-06 15:21 7.91562 -73.87648 31956 ft 476 kts 175°
2026-05-06 15:22 7.84976 -73.87121 31952 ft 476 kts 175°
2026-05-06 15:22 7.78386 -73.86593 31953 ft 476 kts 175°
2026-05-06 15:23 7.71799 -73.86066 31958 ft 476 kts 175°
2026-05-06 15:23 7.65210 -73.85538 31960 ft 476 kts 175°
2026-05-06 15:24 7.58621 -73.85011 31965 ft 476 kts 175°
2026-05-06 15:24 7.52037 -73.84484 31964 ft 475 kts 175°
2026-05-06 15:25 7.45456 -73.83958 31970 ft 475 kts 175°
2026-05-06 15:25 7.38874 -73.83432 31975 ft 475 kts 175°
2026-05-06 15:26 7.32294 -73.82906 31963 ft 475 kts 175°
2026-05-06 15:26 7.25717 -73.82381 31944 ft 475 kts 175°
2026-05-06 15:27 7.19144 -73.81855 31942 ft 474 kts 175°
2026-05-06 15:27 7.12580 -73.81331 31939 ft 474 kts 175°
2026-05-06 15:28 7.06030 -73.80809 31940 ft 473 kts 175°
2026-05-06 15:28 6.99595 -73.79696 31948 ft 470 kts 165°
2026-05-06 15:29 6.93260 -73.78050 31941 ft 471 kts 165°
2026-05-06 15:29 6.86932 -73.76401 32129 ft 471 kts 165°
2026-05-06 15:29 6.83771 -73.75577 32369 ft 470 kts 165°
2026-05-06 15:30 6.80613 -73.74754 32602 ft 470 kts 165°
2026-05-06 15:30 6.77452 -73.73930 32839 ft 469 kts 165°
2026-05-06 15:30 6.74296 -73.73107 32991 ft 470 kts 165°
2026-05-06 15:31 6.67988 -73.71464 33004 ft 468 kts 165°
2026-05-06 15:31 6.61704 -73.69827 33031 ft 468 kts 165°
2026-05-06 15:32 6.52274 -73.67372 33055 ft 467 kts 165°
2026-05-06 15:32 6.45995 -73.65737 33064 ft 467 kts 165°
2026-05-06 15:33 6.39714 -73.64102 33083 ft 468 kts 164°
2026-05-06 15:33 6.33424 -73.62466 33101 ft 468 kts 165°
2026-05-06 15:34 6.27138 -73.60831 33110 ft 468 kts 165°
2026-05-06 15:34 6.20876 -73.59202 33134 ft 468 kts 164°
2026-05-06 15:35 6.15241 -73.57737 33148 ft 468 kts 165°
2026-05-06 15:35 6.08945 -73.56101 33169 ft 468 kts 165°
2026-05-06 15:36 6.02660 -73.54467 33192 ft 468 kts 165°
2026-05-06 15:36 5.96357 -73.52830 33206 ft 468 kts 164°
2026-05-06 15:37 5.90067 -73.51196 33222 ft 468 kts 164°
2026-05-06 15:37 5.83781 -73.49564 33223 ft 467 kts 164°
2026-05-06 15:38 5.77505 -73.47933 34420 ft 467 kts 166°
2026-05-06 15:38 5.74370 -73.47122 33102 ft 465 kts 164°
2026-05-06 15:38 5.71249 -73.46311 33255 ft 465 kts 164°
2026-05-06 15:39 5.64975 -73.44683 33284 ft 467 kts 164°
2026-05-06 15:39 5.58700 -73.43055 33313 ft 467 kts 164°
2026-05-06 15:40 5.55563 -73.42241 33471 ft 467 kts 164°
2026-05-06 15:40 5.52423 -73.41426 33741 ft 466 kts 164°
2026-05-06 15:40 5.49295 -73.40616 34006 ft 465 kts 164°
2026-05-06 15:40 5.46173 -73.39806 34257 ft 464 kts 164°
2026-05-06 15:41 5.43054 -73.38997 34486 ft 463 kts 164°
2026-05-06 15:41 5.39941 -73.38190 34699 ft 463 kts 164°
2026-05-06 15:41 5.36837 -73.37385 34906 ft 462 kts 164°
2026-05-06 15:41 5.33731 -73.36581 35092 ft 461 kts 164°
2026-05-06 15:42 5.30630 -73.35777 35269 ft 460 kts 164°
2026-05-06 15:42 5.27537 -73.34975 35359 ft 461 kts 164°
2026-05-06 15:42 5.21356 -73.33373 35346 ft 458 kts 164°
2026-05-06 15:43 5.15183 -73.31774 35348 ft 459 kts 164°
2026-05-06 15:43 5.09007 -73.30174 35346 ft 460 kts 164°
2026-05-06 15:44 5.02827 -73.28574 35340 ft 459 kts 164°
2026-05-06 15:44 4.96647 -73.26974 35316 ft 460 kts 164°
2026-05-06 15:45 4.90469 -73.25375 35310 ft 460 kts 164°
2026-05-06 15:45 4.84288 -73.23775 35300 ft 460 kts 164°
2026-05-06 15:46 4.78102 -73.22175 35286 ft 460 kts 165°
2026-05-06 15:46 4.71915 -73.20574 35268 ft 460 kts 165°
2026-05-06 15:47 4.65721 -73.18972 35253 ft 461 kts 165°
2026-05-06 15:47 4.59522 -73.17369 35243 ft 461 kts 165°
2026-05-06 15:48 4.53325 -73.15767 35233 ft 461 kts 165°
2026-05-06 15:48 4.47124 -73.14163 35220 ft 461 kts 165°
2026-05-06 15:49 4.40920 -73.12560 35211 ft 461 kts 165°
2026-05-06 15:49 4.34721 -73.10958 35207 ft 461 kts 165°
2026-05-06 15:50 4.28522 -73.09356 35194 ft 461 kts 165°
2026-05-06 15:50 4.22327 -73.07756 35198 ft 461 kts 165°
2026-05-06 15:51 4.16128 -73.06154 35189 ft 461 kts 165°
2026-05-06 15:51 4.09940 -73.04556 35188 ft 461 kts 165°
2026-05-06 15:52 4.03746 -73.02956 35190 ft 460 kts 165°
2026-05-06 15:52 3.97561 -73.01351 35180 ft 460 kts 165°
2026-05-06 15:53 3.91380 -72.99748 35177 ft 460 kts 165°
2026-05-06 15:53 3.85201 -72.98145 35181 ft 460 kts 165°
2026-05-06 15:54 3.79028 -72.96544 35174 ft 459 kts 165°
2026-05-06 15:54 3.72856 -72.94944 35175 ft 458 kts 165°
2026-05-06 15:55 3.66695 -72.93347 35165 ft 458 kts 165°
2026-05-06 15:55 3.60544 -72.91753 35170 ft 457 kts 164°
2026-05-06 15:56 3.54395 -72.90159 35162 ft 457 kts 165°
2026-05-06 15:56 3.48247 -72.88565 35158 ft 458 kts 164°
2026-05-06 15:57 3.42099 -72.86972 35153 ft 457 kts 164°
2026-05-06 15:57 3.35950 -72.85379 35149 ft 457 kts 164°
2026-05-06 15:58 3.29808 -72.83788 35147 ft 457 kts 164°
2026-05-06 15:58 3.23658 -72.82195 35139 ft 457 kts 164°
2026-05-06 15:59 3.17513 -72.80604 35133 ft 457 kts 164°
2026-05-06 15:59 3.11364 -72.79012 35128 ft 457 kts 164°
2026-05-06 16:00 3.05218 -72.77420 35119 ft 457 kts 164°
2026-05-06 16:00 2.99070 -72.75829 35120 ft 457 kts 164°
2026-05-06 16:01 2.92925 -72.74238 35108 ft 457 kts 164°
2026-05-06 16:01 2.86779 -72.72647 35103 ft 457 kts 164°
2026-05-06 16:02 2.80633 -72.71057 35100 ft 457 kts 164°
2026-05-06 16:02 2.74492 -72.69468 35093 ft 457 kts 164°
2026-05-06 16:03 2.68338 -72.67876 35099 ft 457 kts 164°
2026-05-06 16:03 2.62190 -72.66285 35107 ft 457 kts 164°
2026-05-06 16:04 2.56045 -72.64695 35107 ft 458 kts 164°
2026-05-06 16:04 2.50037 -72.62671 35109 ft 456 kts 157°
2026-05-06 16:05 2.44146 -72.60334 35097 ft 457 kts 157°
2026-05-06 16:05 2.38259 -72.57984 35085 ft 457 kts 157°
2026-05-06 16:06 2.32372 -72.55633 35066 ft 457 kts 157°
2026-05-06 16:06 2.26479 -72.53280 35059 ft 457 kts 157°
2026-05-06 16:07 2.20587 -72.50927 35059 ft 457 kts 157°
2026-05-06 16:07 2.14693 -72.48574 35056 ft 457 kts 157°
2026-05-06 16:08 2.08799 -72.46221 35063 ft 457 kts 157°
2026-05-06 16:08 2.02899 -72.43865 35060 ft 457 kts 157°
2026-05-06 16:09 1.97005 -72.41513 35058 ft 458 kts 157°
2026-05-06 16:09 1.91101 -72.39157 35059 ft 458 kts 157°
2026-05-06 16:10 1.85199 -72.36801 35059 ft 458 kts 157°
2026-05-06 16:10 1.79299 -72.34446 35058 ft 458 kts 157°
2026-05-06 16:11 1.73385 -72.32087 35060 ft 458 kts 156°
2026-05-06 16:11 1.67467 -72.29725 35055 ft 458 kts 156°
2026-05-06 16:12 1.61557 -72.27367 35058 ft 459 kts 156°
2026-05-06 16:12 1.55648 -72.25009 35050 ft 459 kts 156°
2026-05-06 16:13 1.49728 -72.22648 35054 ft 459 kts 156°
2026-05-06 16:13 1.43812 -72.20288 35053 ft 459 kts 156°
2026-05-06 16:14 1.37902 -72.17930 35056 ft 459 kts 156°
2026-05-06 16:14 1.31989 -72.15571 35049 ft 459 kts 156°
2026-05-06 16:15 1.26075 -72.13212 35045 ft 458 kts 156°
2026-05-06 16:15 1.20161 -72.10854 35046 ft 458 kts 156°
2026-05-06 16:16 1.14252 -72.08497 35047 ft 458 kts 156°
2026-05-06 16:16 1.08339 -72.06139 35048 ft 458 kts 156°
2026-05-06 16:17 1.02428 -72.03782 35048 ft 458 kts 156°
2026-05-06 16:17 0.96516 -72.01424 35050 ft 458 kts 156°
2026-05-06 16:18 0.90608 -71.99069 35047 ft 458 kts 156°
2026-05-06 16:18 0.84698 -71.96712 35042 ft 458 kts 156°
2026-05-06 16:19 0.78789 -71.94356 35044 ft 458 kts 156°
2026-05-06 16:19 0.72889 -71.92003 35042 ft 458 kts 156°
2026-05-06 16:20 0.66986 -71.89649 35039 ft 458 kts 156°
2026-05-06 16:20 0.61072 -71.87292 35040 ft 458 kts 156°
2026-05-06 16:21 0.55167 -71.84937 35036 ft 458 kts 156°
2026-05-06 16:21 0.49267 -71.82585 35041 ft 458 kts 156°
2026-05-06 16:22 0.43355 -71.80229 35043 ft 458 kts 156°
2026-05-06 16:22 0.37456 -71.77877 35039 ft 458 kts 156°
2026-05-06 16:23 0.31550 -71.75522 35043 ft 458 kts 156°
2026-05-06 16:23 0.25650 -71.73161 35035 ft 458 kts 156°
2026-05-06 16:24 0.19749 -71.70798 35038 ft 458 kts 156°
2026-05-06 16:24 0.13842 -71.68432 35038 ft 458 kts 156°
2026-05-06 16:25 0.07938 -71.66067 35035 ft 458 kts 156°
2026-05-06 16:25 0.02027 -71.63700 35038 ft 458 kts 156°
2026-05-06 16:26 -0.03881 -71.61334 35029 ft 460 kts 156°
2026-05-06 16:26 -0.09813 -71.58959 35033 ft 460 kts 156°
2026-05-06 16:27 -0.15750 -71.56581 35040 ft 460 kts 156°
2026-05-06 16:27 -0.21678 -71.54207 35039 ft 460 kts 156°
2026-05-06 16:28 -0.27621 -71.51827 35038 ft 461 kts 156°
2026-05-06 16:28 -0.33555 -71.49450 35037 ft 461 kts 156°
2026-05-06 16:29 -0.39496 -71.47071 35035 ft 461 kts 156°
2026-05-06 16:29 -0.45437 -71.44691 35042 ft 461 kts 156°
2026-05-06 16:30 -0.50390 -71.42708 35032 ft 461 kts 156°
2026-05-06 16:30 -0.57326 -71.39930 35033 ft 461 kts 156°
2026-05-06 16:31 -0.63275 -71.37547 35033 ft 461 kts 156°
2026-05-06 16:31 -0.69222 -71.35165 35039 ft 461 kts 156°
2026-05-06 16:32 -0.75170 -71.32783 35035 ft 462 kts 156°
2026-05-06 16:32 -0.81122 -71.30398 35040 ft 462 kts 156°
2026-05-06 16:33 -0.87069 -71.28016 35037 ft 462 kts 156°
2026-05-06 16:34 -0.96008 -71.24435 35035 ft 462 kts 156°
2026-05-06 16:34 -1.01966 -71.22048 35040 ft 462 kts 156°
2026-05-06 16:35 -1.07930 -71.19659 35039 ft 463 kts 156°
2026-05-06 16:35 -1.13894 -71.17270 35036 ft 463 kts 156°
2026-05-06 16:36 -1.19867 -71.14876 35039 ft 464 kts 156°
2026-05-06 16:36 -1.25844 -71.12482 35037 ft 464 kts 156°
2026-05-06 16:37 -1.31825 -71.10085 35036 ft 464 kts 156°
2026-05-06 16:37 -1.37803 -71.07690 35038 ft 464 kts 156°
2026-05-06 16:38 -1.43791 -71.05290 35042 ft 465 kts 156°
2026-05-06 16:38 -1.49775 -71.02892 35039 ft 464 kts 156°
2026-05-06 16:39 -1.55759 -71.00494 35038 ft 465 kts 156°
2026-05-06 16:39 -1.61755 -70.98090 35040 ft 465 kts 156°
2026-05-06 16:40 -1.67749 -70.95687 35039 ft 465 kts 156°
2026-05-06 16:40 -1.73752 -70.93281 35038 ft 465 kts 156°
2026-05-06 16:41 -1.79747 -70.90878 35039 ft 465 kts 156°
2026-05-06 16:41 -1.85750 -70.88471 35037 ft 466 kts 156°
2026-05-06 16:42 -1.91747 -70.86067 35047 ft 466 kts 156°
2026-05-06 16:42 -1.97725 -70.83592 35042 ft 466 kts 155°
2026-05-06 16:43 -2.03664 -70.81031 35042 ft 466 kts 155°
2026-05-06 16:43 -2.09619 -70.78475 35040 ft 466 kts 155°
2026-05-06 16:44 -2.15567 -70.75922 35044 ft 466 kts 155°
2026-05-06 16:44 -2.21516 -70.73368 35043 ft 466 kts 155°
2026-05-06 16:45 -2.27472 -70.70812 35037 ft 466 kts 155°
2026-05-06 16:45 -2.33431 -70.68279 35041 ft 467 kts 156°
2026-05-06 16:46 -2.39458 -70.65885 35037 ft 467 kts 156°
2026-05-06 16:46 -2.45488 -70.63473 35041 ft 468 kts 156°
2026-05-06 16:47 -2.51517 -70.61058 35043 ft 468 kts 156°
2026-05-06 16:47 -2.57546 -70.58644 35033 ft 468 kts 156°
2026-05-06 16:48 -2.63583 -70.56226 35042 ft 468 kts 156°
2026-05-06 16:48 -2.69620 -70.53808 35034 ft 469 kts 156°
2026-05-06 16:49 -2.75662 -70.51387 35039 ft 469 kts 156°
2026-05-06 16:49 -2.81702 -70.48967 35031 ft 469 kts 156°
2026-05-06 16:50 -2.87751 -70.46544 35033 ft 469 kts 156°
2026-05-06 16:50 -2.93797 -70.44121 35034 ft 469 kts 156°
2026-05-06 16:51 -2.99844 -70.41697 35035 ft 469 kts 156°
2026-05-06 16:51 -3.05886 -70.39276 35035 ft 469 kts 156°
2026-05-06 16:52 -3.11936 -70.36850 35033 ft 469 kts 156°
2026-05-06 16:52 -3.17984 -70.34426 35033 ft 469 kts 156°
2026-05-06 16:53 -3.24027 -70.32002 35034 ft 469 kts 156°
2026-05-06 16:53 -3.30080 -70.29573 35028 ft 469 kts 156°
2026-05-06 16:54 -3.36128 -70.27146 35031 ft 470 kts 156°
2026-05-06 16:54 -3.42187 -70.24714 35030 ft 470 kts 156°
2026-05-06 16:55 -3.48246 -70.22282 35031 ft 470 kts 156°
2026-05-06 16:55 -3.54307 -70.19849 35032 ft 470 kts 156°
2026-05-06 16:56 -3.60375 -70.17413 35032 ft 471 kts 156°
2026-05-06 16:56 -3.66439 -70.14977 35034 ft 471 kts 156°
2026-05-06 16:57 -3.72502 -70.12542 35026 ft 471 kts 156°
2026-05-06 16:57 -3.78566 -70.10106 35031 ft 470 kts 156°
2026-05-06 16:58 -3.84625 -70.07672 35025 ft 470 kts 156°
2026-05-06 16:58 -3.90681 -70.05239 35025 ft 470 kts 156°
2026-05-06 16:59 -3.96736 -70.02806 35022 ft 470 kts 156°
2026-05-06 16:59 -4.02792 -70.00372 35026 ft 470 kts 156°
2026-05-06 17:00 -4.08849 -69.97936 35019 ft 470 kts 156°
2026-05-06 17:00 -4.14899 -69.95504 35020 ft 470 kts 156°
2026-05-06 17:01 -4.21013 -69.93210 35021 ft 471 kts 159°
2026-05-06 17:01 -4.27184 -69.91035 35052 ft 471 kts 158°
2026-05-06 17:02 -4.33349 -69.88845 35044 ft 471 kts 158°
2026-05-06 17:02 -4.39513 -69.86654 35044 ft 471 kts 158°
2026-05-06 17:03 -4.45683 -69.84460 35039 ft 471 kts 158°
2026-05-06 17:03 -4.51849 -69.82267 35024 ft 471 kts 158°
2026-05-06 17:04 -4.58015 -69.80074 35023 ft 471 kts 158°
2026-05-06 17:04 -4.64188 -69.77895 35013 ft 471 kts 159°
2026-05-06 17:05 -4.70358 -69.75717 35015 ft 471 kts 159°
2026-05-06 17:05 -4.76536 -69.73536 35015 ft 471 kts 159°
2026-05-06 17:06 -4.82706 -69.71358 35021 ft 471 kts 159°
2026-05-06 17:06 -4.88879 -69.69178 35015 ft 471 kts 159°
2026-05-06 17:07 -4.95050 -69.66984 35019 ft 472 kts 158°
2026-05-06 17:07 -5.01220 -69.64778 35012 ft 472 kts 158°
2026-05-06 17:08 -5.07389 -69.62572 35017 ft 472 kts 159°
2026-05-06 17:08 -5.13554 -69.60368 35014 ft 472 kts 159°
2026-05-06 17:09 -5.19723 -69.58161 35013 ft 472 kts 159°
2026-05-06 17:09 -5.25898 -69.55952 35012 ft 472 kts 159°
2026-05-06 17:10 -5.32074 -69.53742 35013 ft 472 kts 159°
2026-05-06 17:10 -5.38254 -69.51531 35012 ft 473 kts 159°
2026-05-06 17:11 -5.44436 -69.49318 35014 ft 473 kts 159°
2026-05-06 17:11 -5.50624 -69.47102 35009 ft 473 kts 159°
2026-05-06 17:12 -5.56812 -69.44886 35010 ft 473 kts 159°
2026-05-06 17:12 -5.63000 -69.42670 35008 ft 473 kts 159°
2026-05-06 17:13 -5.69191 -69.40452 35006 ft 474 kts 159°
2026-05-06 17:13 -5.75392 -69.38229 35012 ft 474 kts 159°
2026-05-06 17:14 -5.81592 -69.36007 35009 ft 474 kts 159°
2026-05-06 17:14 -5.87797 -69.33783 35007 ft 474 kts 159°
2026-05-06 17:15 -5.93998 -69.31559 35012 ft 475 kts 159°
2026-05-06 17:15 -6.00202 -69.29334 35001 ft 475 kts 159°
2026-05-06 17:16 -6.06415 -69.27104 35002 ft 475 kts 159°
2026-05-06 17:16 -6.12622 -69.24877 35002 ft 475 kts 159°
2026-05-06 17:17 -6.18831 -69.22648 35006 ft 475 kts 159°
2026-05-06 17:17 -6.25036 -69.20419 35001 ft 475 kts 159°
2026-05-06 17:18 -6.31234 -69.18155 35001 ft 475 kts 158°
2026-05-06 17:18 -6.37433 -69.15891 34997 ft 475 kts 159°
2026-05-06 17:19 -6.43631 -69.13628 34995 ft 475 kts 159°
2026-05-06 17:19 -6.49839 -69.11361 34998 ft 476 kts 159°
2026-05-06 17:20 -6.56044 -69.09094 34999 ft 476 kts 159°
2026-05-06 17:20 -6.62255 -69.06824 34996 ft 476 kts 159°
2026-05-06 17:21 -6.68465 -69.04554 34995 ft 476 kts 159°
2026-05-06 17:21 -6.74699 -69.02335 34995 ft 476 kts 159°
2026-05-06 17:22 -6.80932 -69.00116 34996 ft 476 kts 159°
2026-05-06 17:22 -6.87165 -68.97896 34998 ft 476 kts 159°
2026-05-06 17:23 -6.93398 -68.95675 34996 ft 476 kts 159°
2026-05-06 17:23 -6.99628 -68.93455 34997 ft 476 kts 159°
2026-05-06 17:24 -7.05858 -68.91234 34993 ft 476 kts 159°
2026-05-06 17:24 -7.12090 -68.89012 34993 ft 476 kts 159°
2026-05-06 17:25 -7.18322 -68.86789 34995 ft 476 kts 159°
2026-05-06 17:25 -7.24547 -68.84568 34995 ft 476 kts 159°
2026-05-06 17:26 -7.30769 -68.82347 34993 ft 475 kts 159°
2026-05-06 17:26 -7.36991 -68.80126 34991 ft 475 kts 159°
2026-05-06 17:27 -7.43214 -68.77903 34989 ft 475 kts 159°
2026-05-06 17:27 -7.49441 -68.75679 34993 ft 476 kts 159°
2026-05-06 17:28 -7.55663 -68.73456 34991 ft 476 kts 159°
2026-05-06 17:28 -7.61893 -68.71229 34989 ft 476 kts 159°
2026-05-06 17:29 -7.68119 -68.69002 34988 ft 476 kts 159°
2026-05-06 17:29 -7.74340 -68.66757 34994 ft 476 kts 159°
2026-05-06 17:30 -7.80568 -68.64510 34993 ft 476 kts 159°
2026-05-06 17:30 -7.86800 -68.62261 34997 ft 477 kts 159°
2026-05-06 17:31 -7.93037 -68.60010 34991 ft 477 kts 159°
2026-05-06 17:31 -7.99262 -68.57762 34995 ft 477 kts 159°
2026-05-06 17:32 -8.05493 -68.55511 34990 ft 477 kts 159°
2026-05-06 17:32 -8.11726 -68.53259 34993 ft 476 kts 159°
2026-05-06 17:33 -8.17952 -68.51008 34995 ft 476 kts 159°
2026-05-06 17:33 -8.24175 -68.48758 34996 ft 476 kts 159°
2026-05-06 17:34 -8.30389 -68.46510 34996 ft 476 kts 159°
2026-05-06 17:34 -8.36610 -68.44259 34996 ft 476 kts 159°
2026-05-06 17:35 -8.42831 -68.42008 34993 ft 476 kts 159°
2026-05-06 17:35 -8.49051 -68.39756 34994 ft 476 kts 159°
2026-05-06 17:36 -8.58373 -68.36379 34996 ft 475 kts 159°
2026-05-06 17:36 -8.64581 -68.34129 34993 ft 475 kts 159°
2026-05-06 17:37 -8.70793 -68.31878 34995 ft 475 kts 159°
2026-05-06 17:37 -8.76996 -68.29628 34993 ft 475 kts 159°
2026-05-06 17:38 -8.83199 -68.27378 34995 ft 475 kts 159°
2026-05-06 17:38 -8.89403 -68.25127 34995 ft 474 kts 159°
2026-05-06 17:39 -8.95599 -68.22877 34994 ft 474 kts 159°
2026-05-06 17:39 -9.01803 -68.20624 34994 ft 474 kts 159°
2026-05-06 17:40 -9.08000 -68.18373 34996 ft 474 kts 159°
2026-05-06 17:40 -9.14197 -68.16121 34993 ft 474 kts 159°
2026-05-06 17:41 -9.20394 -68.13868 34990 ft 474 kts 159°
2026-05-06 17:41 -9.26613 -68.11674 34992 ft 474 kts 160°
2026-05-06 17:42 -9.32842 -68.09523 34992 ft 474 kts 160°
2026-05-06 17:42 -9.39069 -68.07368 34991 ft 474 kts 160°
2026-05-06 17:43 -9.45291 -68.05212 34993 ft 474 kts 160°
2026-05-06 17:43 -9.51524 -68.03053 34996 ft 474 kts 160°
2026-05-06 17:44 -9.57749 -68.00896 35005 ft 474 kts 160°
2026-05-06 17:44 -9.63984 -67.98733 35016 ft 474 kts 160°
2026-05-06 17:45 -9.70222 -67.96569 35030 ft 475 kts 160°
2026-05-06 17:45 -9.76458 -67.94405 35045 ft 475 kts 160°
2026-05-06 17:46 -9.82701 -67.92238 35048 ft 475 kts 160°
2026-05-06 17:46 -9.88990 -67.90237 35049 ft 475 kts 166°
2026-05-06 17:47 -9.95420 -67.88689 35051 ft 476 kts 166°
2026-05-06 17:47 -10.01846 -67.87165 35036 ft 476 kts 166°
2026-05-06 17:48 -10.08288 -67.85639 35019 ft 476 kts 166°
2026-05-06 17:48 -10.14722 -67.84114 35008 ft 476 kts 166°
2026-05-06 17:49 -10.21161 -67.82588 34990 ft 476 kts 166°
2026-05-06 17:49 -10.27603 -67.81060 34994 ft 476 kts 166°
2026-05-06 17:50 -10.34036 -67.79533 34991 ft 476 kts 166°
2026-05-06 17:50 -10.40468 -67.78006 34994 ft 476 kts 166°
2026-05-06 17:51 -10.46900 -67.76479 34988 ft 476 kts 166°
2026-05-06 17:51 -10.53338 -67.74949 34990 ft 476 kts 166°
2026-05-06 17:52 -10.59768 -67.73421 34990 ft 476 kts 166°
2026-05-06 17:52 -10.66200 -67.71892 34990 ft 476 kts 166°
2026-05-06 17:53 -10.72646 -67.70420 34991 ft 476 kts 167°
2026-05-06 17:53 -10.79087 -67.68964 34989 ft 476 kts 167°
2026-05-06 17:54 -10.85541 -67.67503 34985 ft 476 kts 167°
2026-05-06 17:54 -10.91990 -67.66042 34992 ft 476 kts 167°
2026-05-06 17:55 -10.98438 -67.64581 34992 ft 476 kts 167°
2026-05-06 17:55 -11.04884 -67.63119 34992 ft 476 kts 167°
2026-05-06 17:56 -11.11331 -67.61657 34985 ft 476 kts 167°
2026-05-06 17:56 -11.17783 -67.60193 34988 ft 476 kts 167°
2026-05-06 17:57 -11.24233 -67.58729 34988 ft 476 kts 167°
2026-05-06 17:57 -11.30683 -67.57264 34992 ft 476 kts 167°
2026-05-06 17:58 -11.37140 -67.55796 34988 ft 476 kts 167°
2026-05-06 17:58 -11.43594 -67.54329 34989 ft 476 kts 167°
2026-05-06 17:59 -11.50052 -67.52860 34990 ft 477 kts 167°
2026-05-06 17:59 -11.56515 -67.51390 34989 ft 477 kts 167°
2026-05-06 18:00 -11.62978 -67.49918 34988 ft 477 kts 167°
2026-05-06 18:00 -11.69447 -67.48445 34984 ft 477 kts 167°
2026-05-06 18:01 -11.75913 -67.46971 34983 ft 477 kts 167°
2026-05-06 18:01 -11.82393 -67.45494 34986 ft 478 kts 167°
2026-05-06 18:02 -11.88864 -67.44018 34982 ft 478 kts 167°
2026-05-06 18:02 -11.95341 -67.42540 34984 ft 478 kts 167°
2026-05-06 18:03 -12.01823 -67.41060 34988 ft 478 kts 167°
2026-05-06 18:03 -12.08303 -67.39579 34980 ft 478 kts 167°
2026-05-06 18:04 -12.14779 -67.38099 34983 ft 478 kts 167°
2026-05-06 18:04 -12.21254 -67.36619 34977 ft 478 kts 167°
2026-05-06 18:05 -12.27730 -67.35137 34977 ft 478 kts 167°
2026-05-06 18:05 -12.34201 -67.33656 34977 ft 478 kts 168°
2026-05-06 18:06 -12.40677 -67.32173 34972 ft 478 kts 168°
2026-05-06 18:06 -12.47151 -67.30690 34971 ft 478 kts 168°
2026-05-06 18:07 -12.53626 -67.29205 34971 ft 478 kts 168°
2026-05-06 18:07 -12.60102 -67.27720 34973 ft 477 kts 168°
2026-05-06 18:08 -12.66573 -67.26235 34969 ft 478 kts 168°
2026-05-06 18:08 -12.73046 -67.24749 34967 ft 478 kts 168°
2026-05-06 18:09 -12.79518 -67.23263 34967 ft 478 kts 168°
2026-05-06 18:09 -12.85991 -67.21801 34966 ft 477 kts 168°
2026-05-06 18:10 -12.92463 -67.20336 34964 ft 478 kts 168°
2026-05-06 18:10 -12.98943 -67.18869 34964 ft 478 kts 168°
2026-05-06 18:11 -13.04338 -67.17646 34963 ft 478 kts 168°
2026-05-06 18:11 -13.11894 -67.15934 34963 ft 478 kts 168°
2026-05-06 18:12 -13.18372 -67.14464 34960 ft 478 kts 168°
2026-05-06 18:12 -13.24843 -67.12996 34962 ft 478 kts 168°
2026-05-06 18:13 -13.31326 -67.11524 34960 ft 478 kts 168°
2026-05-06 18:13 -13.37800 -67.10053 34960 ft 478 kts 168°
2026-05-06 18:14 -13.44282 -67.08580 34960 ft 478 kts 168°
2026-05-06 18:14 -13.50753 -67.07108 34960 ft 478 kts 168°
2026-05-06 18:15 -13.57232 -67.05633 34954 ft 478 kts 168°
2026-05-06 18:15 -13.63705 -67.04160 34956 ft 477 kts 168°
2026-05-06 18:16 -13.70173 -67.02686 34956 ft 477 kts 168°
2026-05-06 18:16 -13.76649 -67.01210 34957 ft 477 kts 168°
2026-05-06 18:17 -13.83121 -66.99734 34954 ft 477 kts 168°
2026-05-06 18:17 -13.89588 -66.98258 34953 ft 477 kts 168°
2026-05-06 18:18 -13.96062 -66.96779 34948 ft 478 kts 168°
2026-05-06 18:18 -14.02537 -66.95300 34950 ft 478 kts 168°
2026-05-06 18:19 -14.09011 -66.93820 34951 ft 478 kts 168°
2026-05-06 18:19 -14.15487 -66.92339 34951 ft 478 kts 168°
2026-05-06 18:20 -14.21966 -66.90856 34948 ft 478 kts 168°
2026-05-06 18:20 -14.28449 -66.89372 34947 ft 478 kts 168°
2026-05-06 18:21 -14.34924 -66.87888 34943 ft 478 kts 169°
2026-05-06 18:21 -14.41399 -66.86403 34944 ft 478 kts 169°
2026-05-06 18:22 -14.47883 -66.84919 34946 ft 478 kts 169°
2026-05-06 18:22 -14.54361 -66.83453 34948 ft 478 kts 169°
2026-05-06 18:23 -14.60841 -66.81985 34944 ft 478 kts 169°
2026-05-06 18:23 -14.67317 -66.80515 34944 ft 478 kts 169°
2026-05-06 18:24 -14.73799 -66.79045 34947 ft 478 kts 169°
2026-05-06 18:24 -14.80274 -66.77574 34950 ft 477 kts 169°
2026-05-06 18:25 -14.86748 -66.76103 34946 ft 478 kts 169°
2026-05-06 18:25 -14.93228 -66.74630 34943 ft 478 kts 169°
2026-05-06 18:26 -14.99698 -66.73158 34943 ft 477 kts 169°
2026-05-06 18:26 -15.06159 -66.71687 34946 ft 476 kts 169°
2026-05-06 18:27 -15.12619 -66.70215 34943 ft 476 kts 169°
2026-05-06 18:27 -15.19069 -66.68746 34946 ft 475 kts 169°
2026-05-06 18:28 -15.25518 -66.67275 34946 ft 475 kts 169°
2026-05-06 18:28 -15.31960 -66.65804 34948 ft 475 kts 169°
2026-05-06 18:29 -15.38399 -66.64334 34948 ft 475 kts 169°
2026-05-06 18:29 -15.44841 -66.62862 34951 ft 475 kts 169°
2026-05-06 18:30 -15.51278 -66.61390 34951 ft 475 kts 169°
2026-05-06 18:30 -15.57717 -66.59917 34956 ft 474 kts 169°
2026-05-06 18:31 -15.64149 -66.58445 34952 ft 474 kts 170°
2026-05-06 18:31 -15.70586 -66.56986 34952 ft 474 kts 170°
2026-05-06 18:32 -15.77020 -66.55526 34957 ft 474 kts 170°
2026-05-06 18:32 -15.83448 -66.54067 34959 ft 474 kts 170°
2026-05-06 18:33 -15.89882 -66.52605 34961 ft 474 kts 170°
2026-05-06 18:33 -15.96313 -66.51143 34962 ft 474 kts 170°
2026-05-06 18:34 -16.02745 -66.49680 34963 ft 474 kts 170°
2026-05-06 18:34 -16.09175 -66.48216 34974 ft 474 kts 170°
2026-05-06 18:35 -16.15606 -66.46751 34974 ft 474 kts 170°
2026-05-06 18:35 -16.22035 -66.45285 34989 ft 474 kts 170°
2026-05-06 18:36 -16.28461 -66.43820 34993 ft 474 kts 170°
2026-05-06 18:36 -16.34892 -66.42352 34997 ft 474 kts 171°
2026-05-06 18:37 -16.40255 -66.41127 35004 ft 474 kts 170°
2026-05-06 18:37 -16.47766 -66.39411 35018 ft 475 kts 171°
2026-05-06 18:38 -16.54219 -66.37934 35054 ft 476 kts 171°
2026-05-06 18:38 -16.60664 -66.36460 35048 ft 476 kts 171°
2026-05-06 18:39 -16.67129 -66.34987 35071 ft 476 kts 171°
2026-05-06 18:40 -16.76820 -66.32784 35092 ft 476 kts 171°
2026-05-06 18:40 -16.83278 -66.31314 35104 ft 475 kts 170°
2026-05-06 18:41 -16.89727 -66.29845 35118 ft 475 kts 171°
2026-05-06 18:41 -16.96175 -66.28378 35109 ft 476 kts 171°
2026-05-06 18:42 -17.02646 -66.26905 35106 ft 477 kts 171°
2026-05-06 18:42 -17.09119 -66.25431 35117 ft 477 kts 171°
2026-05-06 18:43 -17.15583 -66.23957 35142 ft 477 kts 171°
2026-05-06 18:43 -17.22058 -66.22481 35178 ft 477 kts 171°
2026-05-06 18:44 -17.28530 -66.21003 35221 ft 477 kts 171°
2026-05-06 18:44 -17.35026 -66.19519 35571 ft 478 kts 171°
2026-05-06 18:44 -17.38273 -66.18777 35822 ft 478 kts 171°
2026-05-06 18:45 -17.41510 -66.18052 36085 ft 476 kts 174°
2026-05-06 18:45 -17.44773 -66.17557 36352 ft 473 kts 175°
2026-05-06 18:45 -17.48023 -66.17064 36590 ft 473 kts 175°
2026-05-06 18:45 -17.50184 -66.16726 36761 ft 472 kts 175°
2026-05-06 18:46 -17.54502 -66.16039 37065 ft 471 kts 175°
2026-05-06 18:46 -17.57732 -66.15523 37193 ft 470 kts 175°
2026-05-06 18:46 -17.60957 -66.15006 37141 ft 470 kts 175°
2026-05-06 18:47 -17.67380 -66.13976 37051 ft 468 kts 175°
2026-05-06 18:47 -17.73811 -66.12949 36958 ft 468 kts 175°
2026-05-06 18:48 -17.80229 -66.11955 36893 ft 467 kts 175°
2026-05-06 18:48 -17.86643 -66.10957 36902 ft 467 kts 175°
2026-05-06 18:49 -17.93068 -66.09956 36907 ft 467 kts 175°
2026-05-06 18:49 -17.99488 -66.08957 36905 ft 467 kts 175°
2026-05-06 18:50 -18.05906 -66.07956 36916 ft 468 kts 175°
2026-05-06 18:50 -18.12323 -66.06955 36922 ft 468 kts 175°
2026-05-06 18:51 -18.18746 -66.05952 36917 ft 467 kts 175°
2026-05-06 18:51 -18.25164 -66.04949 36924 ft 467 kts 175°
2026-05-06 18:52 -18.31577 -66.03947 36922 ft 467 kts 175°
2026-05-06 18:52 -18.38001 -66.02942 36932 ft 468 kts 175°
2026-05-06 18:53 -18.44425 -66.01936 36939 ft 467 kts 175°
2026-05-06 18:53 -18.50847 -66.00933 36947 ft 469 kts 176°
2026-05-06 18:54 -18.57271 -65.99933 36943 ft 467 kts 176°
2026-05-06 18:54 -18.63686 -65.98933 36930 ft 467 kts 176°
2026-05-06 18:55 -18.70094 -65.97933 36949 ft 467 kts 176°
2026-05-06 18:55 -18.76520 -65.96930 36976 ft 468 kts 176°
2026-05-06 18:56 -18.82927 -65.95929 36970 ft 466 kts 176°
2026-05-06 18:56 -18.89337 -65.94927 36957 ft 466 kts 176°
2026-05-06 18:57 -18.95735 -65.93926 36972 ft 466 kts 176°
2026-05-06 18:57 -19.02139 -65.92924 36972 ft 466 kts 176°
2026-05-06 18:58 -19.08546 -65.91920 37026 ft 466 kts 176°
2026-05-06 18:58 -19.14965 -65.90913 36948 ft 466 kts 176°
2026-05-06 18:59 -19.21362 -65.89908 36960 ft 466 kts 176°
2026-05-06 18:59 -19.27768 -65.88903 36953 ft 467 kts 176°
2026-05-06 19:00 -19.34183 -65.87894 36956 ft 467 kts 176°
2026-05-06 19:00 -19.40594 -65.86896 36961 ft 467 kts 176°
2026-05-06 19:01 -19.46997 -65.85899 36969 ft 466 kts 176°
2026-05-06 19:01 -19.53401 -65.84901 36967 ft 466 kts 176°
2026-05-06 19:02 -19.59802 -65.83902 36963 ft 466 kts 176°
2026-05-06 19:02 -19.66196 -65.82907 36967 ft 466 kts 176°
2026-05-06 19:03 -19.72600 -65.81910 36975 ft 466 kts 176°
2026-05-06 19:03 -19.78991 -65.80914 36958 ft 465 kts 176°
2026-05-06 19:04 -19.85384 -65.79918 36956 ft 465 kts 176°
2026-05-06 19:04 -19.91775 -65.78921 36957 ft 465 kts 177°
2026-05-06 19:05 -19.98136 -65.77928 36952 ft 464 kts 176°
2026-05-06 19:05 -20.04535 -65.76932 36903 ft 465 kts 177°
2026-05-06 19:06 -20.10924 -65.75948 36964 ft 466 kts 177°
2026-05-06 19:06 -20.17308 -65.74963 36871 ft 463 kts 177°
2026-05-06 19:07 -20.23679 -65.73978 36899 ft 466 kts 177°
2026-05-06 19:07 -20.30088 -65.72988 36889 ft 466 kts 177°
2026-05-06 19:08 -20.36495 -65.71996 36901 ft 466 kts 177°
2026-05-06 19:08 -20.42883 -65.71007 36882 ft 464 kts 177°
2026-05-06 19:09 -20.49265 -65.70017 36873 ft 464 kts 177°
2026-05-06 19:09 -20.55649 -65.69027 36883 ft 465 kts 177°
2026-05-06 19:10 -20.62034 -65.68035 36887 ft 465 kts 177°
2026-05-06 19:10 -20.68426 -65.67042 36868 ft 465 kts 177°
2026-05-06 19:11 -20.74810 -65.66049 36877 ft 465 kts 177°
2026-05-06 19:11 -20.81204 -65.65053 36882 ft 465 kts 177°
2026-05-06 19:12 -20.87589 -65.64059 36877 ft 465 kts 177°
2026-05-06 19:12 -20.93977 -65.63062 36887 ft 465 kts 177°
2026-05-06 19:13 -21.00378 -65.62063 36878 ft 465 kts 177°
2026-05-06 19:13 -21.06774 -65.61064 36892 ft 466 kts 177°
2026-05-06 19:14 -21.13167 -65.60064 36896 ft 466 kts 177°
2026-05-06 19:14 -21.19576 -65.59061 36899 ft 466 kts 177°
2026-05-06 19:15 -21.25986 -65.58057 36899 ft 467 kts 177°
2026-05-06 19:15 -21.32396 -65.57052 36901 ft 467 kts 177°
2026-05-06 19:16 -21.38816 -65.56045 36898 ft 468 kts 177°
2026-05-06 19:16 -21.45246 -65.55035 36891 ft 468 kts 177°
2026-05-06 19:17 -21.51678 -65.54024 36904 ft 469 kts 177°
2026-05-06 19:17 -21.58115 -65.53011 36882 ft 468 kts 177°
2026-05-06 19:18 -21.64559 -65.51997 36875 ft 470 kts 176°
2026-05-06 19:18 -21.71040 -65.50976 36916 ft 473 kts 177°
2026-05-06 19:19 -21.77518 -65.49953 36892 ft 471 kts 177°
2026-05-06 19:19 -21.83998 -65.48931 36904 ft 473 kts 177°
2026-05-06 19:20 -21.90489 -65.47904 36894 ft 472 kts 177°
2026-05-06 19:20 -21.96959 -65.46881 36951 ft 472 kts 177°
2026-05-06 19:21 -22.03451 -65.45853 36933 ft 473 kts 177°
2026-05-06 19:21 -22.09939 -65.45022 36935 ft 464 kts 187°
2026-05-06 19:22 -22.16388 -65.45095 36948 ft 465 kts 187°
2026-05-06 19:22 -22.22832 -65.45168 36973 ft 464 kts 187°
2026-05-06 19:23 -22.29274 -65.45245 36977 ft 464 kts 187°
2026-05-06 19:23 -22.35718 -65.45323 36987 ft 464 kts 187°
2026-05-06 19:24 -22.42166 -65.45400 36997 ft 464 kts 187°
2026-05-06 19:24 -22.48605 -65.45477 37005 ft 464 kts 187°
2026-05-06 19:25 -22.55049 -65.45555 37007 ft 464 kts 187°
2026-05-06 19:25 -22.61493 -65.45633 37020 ft 464 kts 187°
2026-05-06 19:26 -22.67945 -65.45710 37021 ft 464 kts 187°
2026-05-06 19:26 -22.74391 -65.45788 37028 ft 465 kts 187°
2026-05-06 19:27 -22.80845 -65.45866 37031 ft 465 kts 187°
2026-05-06 19:27 -22.87301 -65.45944 37028 ft 465 kts 187°
2026-05-06 19:28 -22.93757 -65.46023 37033 ft 465 kts 187°
2026-05-06 19:28 -23.00219 -65.46101 37030 ft 465 kts 187°
2026-05-06 19:29 -23.06686 -65.46180 37039 ft 467 kts 187°
2026-05-06 19:29 -23.13174 -65.46258 36978 ft 466 kts 187°
2026-05-06 19:30 -23.19624 -65.46337 37025 ft 464 kts 187°
2026-05-06 19:30 -23.26058 -65.46415 37030 ft 463 kts 188°
2026-05-06 19:31 -23.32496 -65.46493 37002 ft 464 kts 188°
2026-05-06 19:31 -23.42172 -65.46612 37002 ft 465 kts 188°
2026-05-06 19:32 -23.48614 -65.46691 36999 ft 463 kts 188°
2026-05-06 19:32 -23.55072 -65.46769 37003 ft 466 kts 188°
2026-05-06 19:33 -23.61545 -65.46849 36985 ft 466 kts 188°
2026-05-06 19:33 -23.68027 -65.46930 36980 ft 467 kts 188°
2026-05-06 19:34 -23.74501 -65.47009 36962 ft 463 kts 188°
2026-05-06 19:34 -23.80948 -65.47090 36965 ft 466 kts 188°
2026-05-06 19:35 -23.87404 -65.47169 36952 ft 463 kts 188°
2026-05-06 19:35 -23.93864 -65.47250 36953 ft 467 kts 189°
2026-05-06 19:36 -24.00349 -65.47330 36968 ft 467 kts 188°
2026-05-06 19:36 -24.06827 -65.47411 36984 ft 466 kts 189°
2026-05-06 19:37 -24.13301 -65.47491 36975 ft 466 kts 189°
2026-05-06 19:37 -24.18699 -65.47559 36979 ft 466 kts 189°
2026-05-06 19:38 -24.26253 -65.47654 36951 ft 467 kts 189°
2026-05-06 19:38 -24.32747 -65.47735 36930 ft 467 kts 189°
2026-05-06 19:39 -24.39241 -65.47815 36966 ft 468 kts 189°
2026-05-06 19:39 -24.45724 -65.47897 36886 ft 466 kts 189°
2026-05-06 19:40 -24.52178 -65.47977 37002 ft 466 kts 189°
2026-05-06 19:40 -24.58679 -65.48059 36901 ft 468 kts 189°
2026-05-06 19:41 -24.65187 -65.48141 36912 ft 469 kts 189°
2026-05-06 19:41 -24.71703 -65.48222 36885 ft 469 kts 189°
2026-05-06 19:42 -24.78212 -65.48304 36887 ft 469 kts 189°
2026-05-06 19:42 -24.84727 -65.48365 36880 ft 472 kts 186°
2026-05-06 19:43 -24.91315 -65.47252 36866 ft 482 kts 179°
2026-05-06 19:43 -24.97915 -65.46040 36878 ft 482 kts 179°
2026-05-06 19:44 -25.04521 -65.44814 36881 ft 483 kts 179°
2026-05-06 19:44 -25.11129 -65.43586 36878 ft 483 kts 179°
2026-05-06 19:45 -25.17740 -65.42355 36861 ft 483 kts 179°
2026-05-06 19:45 -25.24361 -65.41122 36860 ft 484 kts 179°
2026-05-06 19:46 -25.30981 -65.39887 36855 ft 483 kts 179°
2026-05-06 19:46 -25.37611 -65.38649 36846 ft 485 kts 179°
2026-05-06 19:47 -25.44254 -65.37408 36847 ft 485 kts 179°
2026-05-06 19:47 -25.50891 -65.36166 36841 ft 485 kts 179°
2026-05-06 19:48 -25.57545 -65.34919 36842 ft 485 kts 179°
2026-05-06 19:48 -25.64165 -65.33676 36834 ft 484 kts 179°
2026-05-06 19:49 -25.70810 -65.32431 36843 ft 487 kts 179°
2026-05-06 19:49 -25.77477 -65.31177 36814 ft 486 kts 179°
2026-05-06 19:50 -25.84125 -65.29926 36819 ft 486 kts 179°
2026-05-06 19:50 -25.90775 -65.28673 36782 ft 484 kts 179°
2026-05-06 19:51 -25.97421 -65.27420 36824 ft 487 kts 179°
2026-05-06 19:51 -26.04075 -65.26163 36782 ft 486 kts 179°
2026-05-06 19:52 -26.10747 -65.24901 36782 ft 487 kts 179°
2026-05-06 19:52 -26.17420 -65.23638 36797 ft 489 kts 179°
2026-05-06 19:53 -26.20762 -65.23005 37010 ft 488 kts 180°
2026-05-06 19:53 -26.24106 -65.22371 37228 ft 488 kts 180°
2026-05-06 19:53 -26.27447 -65.21738 37453 ft 488 kts 180°
2026-05-06 19:53 -26.30783 -65.21104 37668 ft 488 kts 180°
2026-05-06 19:54 -26.34121 -65.20471 37881 ft 487 kts 180°
2026-05-06 19:54 -26.37453 -65.19837 38084 ft 487 kts 180°
2026-05-06 19:54 -26.40786 -65.19204 38276 ft 486 kts 180°
2026-05-06 19:54 -26.44117 -65.18570 38458 ft 486 kts 180°
2026-05-06 19:55 -26.47443 -65.17937 38595 ft 486 kts 180°
2026-05-06 19:55 -26.50767 -65.17304 38723 ft 486 kts 180°
2026-05-06 19:55 -26.57433 -65.16033 38709 ft 487 kts 180°
2026-05-06 19:56 -26.64092 -65.14763 38729 ft 488 kts 180°
2026-05-06 19:56 -26.70763 -65.13488 38725 ft 487 kts 180°
2026-05-06 19:57 -26.77442 -65.12211 38721 ft 488 kts 180°
2026-05-06 19:57 -26.84115 -65.10930 38723 ft 487 kts 180°
2026-05-06 19:58 -26.90779 -65.09635 38720 ft 487 kts 180°
2026-05-06 19:58 -26.97438 -65.08340 38716 ft 487 kts 180°
2026-05-06 19:59 -27.04093 -65.07045 38712 ft 486 kts 180°
2026-05-06 19:59 -27.10745 -65.05748 38704 ft 486 kts 180°
2026-05-06 20:00 -27.17385 -65.04453 38698 ft 485 kts 180°
2026-05-06 20:00 -27.24013 -65.03158 38680 ft 484 kts 181°
2026-05-06 20:01 -27.30629 -65.01864 38674 ft 483 kts 181°
2026-05-06 20:01 -27.37224 -65.00572 38671 ft 482 kts 181°
2026-05-06 20:02 -27.43823 -64.99279 38667 ft 483 kts 181°
2026-05-06 20:02 -27.50432 -64.97981 38668 ft 483 kts 181°
2026-05-06 20:03 -27.57049 -64.96681 38671 ft 484 kts 181°
2026-05-06 20:03 -27.63675 -64.95377 38675 ft 485 kts 181°
2026-05-06 20:04 -27.70311 -64.94070 38678 ft 486 kts 181°
2026-05-06 20:04 -27.76964 -64.92806 38688 ft 486 kts 181°
2026-05-06 20:05 -27.83633 -64.91579 38694 ft 487 kts 181°
2026-05-06 20:05 -27.90322 -64.90342 38690 ft 489 kts 181°
2026-05-06 20:06 -27.97023 -64.89102 38688 ft 490 kts 181°
2026-05-06 20:06 -28.03748 -64.87855 38687 ft 491 kts 181°
2026-05-06 20:07 -28.10486 -64.86604 38687 ft 493 kts 181°
2026-05-06 20:07 -28.17247 -64.85347 38681 ft 494 kts 182°
2026-05-06 20:08 -28.24025 -64.84086 38675 ft 495 kts 182°
2026-05-06 20:08 -28.30819 -64.82820 38677 ft 496 kts 182°
2026-05-06 20:09 -28.37629 -64.81550 38673 ft 497 kts 182°
2026-05-06 20:09 -28.44452 -64.80275 38665 ft 498 kts 182°
2026-05-06 20:10 -28.51294 -64.78995 38660 ft 500 kts 182°
2026-05-06 20:10 -28.58145 -64.77712 38657 ft 500 kts 182°
2026-05-06 20:11 -28.64992 -64.76342 38655 ft 502 kts 180°
2026-05-06 20:11 -28.71833 -64.74859 38652 ft 502 kts 181°
2026-05-06 20:12 -28.78678 -64.73389 38650 ft 502 kts 181°
2026-05-06 20:12 -28.85522 -64.71917 38645 ft 501 kts 181°
2026-05-06 20:13 -28.92366 -64.70444 38637 ft 502 kts 181°
2026-05-06 20:13 -28.95798 -64.69705 38118 ft 504 kts 181°
2026-05-06 20:13 -28.99240 -64.68962 37253 ft 507 kts 181°
2026-05-06 20:14 -29.02698 -64.68216 36668 ft 504 kts 181°
2026-05-06 20:14 -29.06127 -64.67475 36144 ft 500 kts 181°
2026-05-06 20:14 -29.09530 -64.66740 35373 ft 502 kts 181°
2026-05-06 20:14 -29.12943 -64.66001 34545 ft 498 kts 181°
2026-05-06 20:15 -29.16316 -64.65271 33768 ft 493 kts 181°
2026-05-06 20:15 -29.19667 -64.64545 32932 ft 488 kts 181°
2026-05-06 20:15 -29.22983 -64.63825 32093 ft 484 kts 180°
2026-05-06 20:15 -29.26267 -64.63113 31280 ft 479 kts 180°
2026-05-06 20:16 -29.29519 -64.62408 30506 ft 474 kts 179°
2026-05-06 20:16 -29.32735 -64.61710 29833 ft 467 kts 179°
2026-05-06 20:16 -29.35864 -64.61029 29543 ft 449 kts 179°
2026-05-06 20:16 -29.38874 -64.60375 29216 ft 434 kts 179°
2026-05-06 20:17 -29.41797 -64.59741 28741 ft 423 kts 179°
2026-05-06 20:17 -29.44655 -64.59119 28277 ft 414 kts 179°
2026-05-06 20:17 -29.47491 -64.58505 27838 ft 420 kts 179°
2026-05-06 20:17 -29.50371 -64.57877 27401 ft 424 kts 179°
2026-05-06 20:18 -29.53265 -64.57245 26986 ft 424 kts 179°
2026-05-06 20:18 -29.56150 -64.56616 26563 ft 421 kts 179°
2026-05-06 20:18 -29.59013 -64.55993 26130 ft 417 kts 179°
2026-05-06 20:18 -29.61850 -64.55456 25630 ft 412 kts 180°
2026-05-06 20:19 -29.64668 -64.54929 25234 ft 409 kts 180°
2026-05-06 20:19 -29.67457 -64.54402 24833 ft 406 kts 179°
2026-05-06 20:19 -29.70224 -64.53876 24406 ft 402 kts 179°
2026-05-06 20:19 -29.72969 -64.53353 24009 ft 399 kts 179°
2026-05-06 20:20 -29.75690 -64.52835 23609 ft 395 kts 179°
2026-05-06 20:20 -29.78387 -64.52321 23205 ft 392 kts 179°
2026-05-06 20:20 -29.81063 -64.51811 22742 ft 389 kts 179°
2026-05-06 20:20 -29.83716 -64.51305 22349 ft 386 kts 179°
2026-05-06 20:21 -29.86345 -64.50803 21967 ft 383 kts 179°
2026-05-06 20:21 -29.88958 -64.50303 21591 ft 380 kts 179°
2026-05-06 20:21 -29.91554 -64.49807 21221 ft 377 kts 179°
2026-05-06 20:21 -29.94125 -64.49307 20837 ft 375 kts 178°
2026-05-06 20:22 -29.96672 -64.48760 20410 ft 372 kts 178°
2026-05-06 20:22 -29.99203 -64.48220 20073 ft 369 kts 178°
2026-05-06 20:22 -30.01718 -64.47685 19739 ft 367 kts 178°
2026-05-06 20:22 -30.04210 -64.47156 19393 ft 364 kts 178°
2026-05-06 20:23 -30.06688 -64.46630 19048 ft 362 kts 178°
2026-05-06 20:23 -30.09159 -64.46105 18706 ft 362 kts 178°
2026-05-06 20:23 -30.11622 -64.45581 18356 ft 360 kts 178°
2026-05-06 20:23 -30.14073 -64.45060 18038 ft 358 kts 178°
2026-05-06 20:24 -30.16511 -64.44542 17665 ft 356 kts 178°
2026-05-06 20:24 -30.18932 -64.44026 17320 ft 353 kts 178°
2026-05-06 20:24 -30.21332 -64.43515 16999 ft 350 kts 178°
2026-05-06 20:24 -30.23710 -64.43008 16684 ft 347 kts 178°
2026-05-06 20:25 -30.26070 -64.42505 16368 ft 344 kts 178°
2026-05-06 20:25 -30.28406 -64.42007 16048 ft 341 kts 178°
2026-05-06 20:25 -30.30723 -64.41513 15750 ft 338 kts 178°
2026-05-06 20:25 -30.33020 -64.41022 15439 ft 335 kts 178°
2026-05-06 20:26 -30.35298 -64.40536 15149 ft 333 kts 178°
2026-05-06 20:26 -30.37561 -64.40052 14844 ft 330 kts 178°
2026-05-06 20:26 -30.39803 -64.39530 14522 ft 333 kts 172°
2026-05-06 20:26 -30.41919 -64.38317 14185 ft 347 kts 151°
2026-05-06 20:27 -30.43850 -64.36655 13904 ft 346 kts 150°
2026-05-06 20:27 -30.45770 -64.34978 13605 ft 348 kts 149°
2026-05-06 20:27 -30.47706 -64.33270 13263 ft 353 kts 149°
2026-05-06 20:27 -30.49659 -64.31534 12922 ft 355 kts 149°
2026-05-06 20:28 -30.51605 -64.29798 12611 ft 352 kts 149°
2026-05-06 20:28 -30.53534 -64.28076 12302 ft 349 kts 149°
2026-05-06 20:28 -30.55437 -64.26375 12035 ft 344 kts 149°
2026-05-06 20:28 -30.57305 -64.24704 11905 ft 335 kts 149°
2026-05-06 20:29 -30.59238 -64.23316 11641 ft 321 kts 168°
2026-05-06 20:29 -30.61378 -64.22850 11349 ft 311 kts 185°
2026-05-06 20:29 -30.63553 -64.22693 11080 ft 315 kts 186°
2026-05-06 20:29 -30.65720 -64.22565 10907 ft 308 kts 186°
2026-05-06 20:30 -30.67824 -64.22460 10771 ft 299 kts 187°
2026-05-06 20:30 -30.71925 -64.22294 10286 ft 297 kts 187°
2026-05-06 20:30 -30.73986 -64.22218 10143 ft 295 kts 187°
2026-05-06 20:31 -30.76023 -64.22146 9990 ft 293 kts 187°
2026-05-06 20:31 -30.78065 -64.22074 9713 ft 294 kts 187°
2026-05-06 20:31 -30.80104 -64.22002 9411 ft 294 kts 187°
2026-05-06 20:31 -30.82139 -64.21930 9100 ft 292 kts 186°
2026-05-06 20:32 -30.84156 -64.21859 8818 ft 289 kts 186°
2026-05-06 20:32 -30.86146 -64.21790 8530 ft 286 kts 186°
2026-05-06 20:32 -30.88119 -64.21720 8254 ft 282 kts 186°
2026-05-06 20:32 -30.90065 -64.21652 7989 ft 279 kts 185°
2026-05-06 20:33 -30.91986 -64.21584 7727 ft 275 kts 185°
2026-05-06 20:33 -30.93885 -64.21517 7469 ft 272 kts 185°
2026-05-06 20:33 -30.95760 -64.21451 7213 ft 269 kts 184°
2026-05-06 20:33 -30.97627 -64.21292 7018 ft 275 kts 172°
2026-05-06 20:34 -30.99396 -64.20355 6932 ft 286 kts 152°
2026-05-06 20:34 -31.01096 -64.19114 6889 ft 290 kts 153°
2026-05-06 20:34 -31.02800 -64.17861 6835 ft 290 kts 152°
2026-05-06 20:34 -31.04499 -64.16600 6780 ft 290 kts 152°
2026-05-06 20:35 -31.06194 -64.15336 6730 ft 290 kts 152°
2026-05-06 20:35 -31.07886 -64.14070 6673 ft 290 kts 151°
2026-05-06 20:35 -31.09578 -64.12802 6621 ft 290 kts 151°
2026-05-06 20:35 -31.11269 -64.11534 6566 ft 289 kts 151°
2026-05-06 20:36 -31.12957 -64.10267 6515 ft 289 kts 151°
2026-05-06 20:36 -31.14646 -64.08998 6466 ft 290 kts 151°
2026-05-06 20:36 -31.16339 -64.07725 6413 ft 290 kts 151°
2026-05-06 20:36 -31.18032 -64.06453 6366 ft 289 kts 150°
2026-05-06 20:37 -31.19713 -64.05189 6315 ft 287 kts 150°
2026-05-06 20:37 -31.21387 -64.03929 6262 ft 287 kts 150°
2026-05-06 20:37 -31.23057 -64.02672 6215 ft 287 kts 150°
2026-05-06 20:37 -31.24731 -64.01412 6161 ft 286 kts 150°
2026-05-06 20:38 -31.26408 -64.00148 6075 ft 287 kts 150°
2026-05-06 20:38 -31.28061 -63.98900 6009 ft 278 kts 150°
2026-05-06 20:38 -31.29646 -63.97707 6003 ft 265 kts 150°
2026-05-06 20:38 -31.31168 -63.96580 5975 ft 254 kts 156°
2026-05-06 20:39 -31.32816 -63.96062 5774 ft 243 kts 182°
2026-05-06 20:39 -31.34499 -63.96011 5655 ft 240 kts 182°
2026-05-06 20:39 -31.36139 -63.95971 5488 ft 234 kts 183°
2026-05-06 20:39 -31.37754 -63.95946 5273 ft 230 kts 183°
2026-05-06 20:40 -31.39331 -63.95930 5107 ft 224 kts 183°
2026-05-06 20:40 -31.40867 -63.95973 4969 ft 220 kts 194°
2026-05-06 20:40 -31.42207 -63.96708 4814 ft 212 kts 228°
2026-05-06 20:40 -31.43005 -63.98095 4724 ft 205 kts 257°
2026-05-06 20:41 -31.43231 -63.99695 4725 ft 192 kts 270°
2026-05-06 20:41 -31.43320 -64.01207 4666 ft 183 kts 271°
2026-05-06 20:41 -31.43381 -64.02679 4528 ft 181 kts 273°
2026-05-06 20:41 -31.43420 -64.04144 4485 ft 176 kts 274°
2026-05-06 20:42 -31.43445 -64.05554 4445 ft 172 kts 275°
2026-05-06 20:42 -31.43479 -64.06936 4325 ft 167 kts 274°
2026-05-06 20:42 -31.43494 -64.08277 4170 ft 164 kts 275°
2026-05-06 20:42 -31.43494 -64.09607 4020 ft 164 kts 275°
2026-05-06 20:43 -31.43494 -64.10941 3903 ft 165 kts 275°
2026-05-06 20:43 -31.43493 -64.12279 3809 ft 165 kts 275°
2026-05-06 20:43 -31.43493 -64.13620 3702 ft 165 kts 275°
2026-05-06 20:43 -31.43469 -64.14955 3651 ft 164 kts 282°
2026-05-06 20:44 -31.42995 -64.16103 3485 ft 156 kts 314°
2026-05-06 20:44 -31.42197 -64.16928 3315 ft 152 kts 327°
2026-05-06 20:44 -31.41348 -64.17644 3175 ft 151 kts 328°
2026-05-06 20:44 -31.40501 -64.18372 3058 ft 152 kts 328°
2026-05-06 20:45 -31.39645 -64.19080 2883 ft 150 kts 331°
2026-05-06 20:45 -31.38781 -64.19716 2760 ft 145 kts 333°
2026-05-06 20:45 -31.37917 -64.20316 2639 ft 144 kts 334°
2026-05-06 20:45 -31.36992 -64.20716 2495 ft 141 kts 351°
2026-05-06 20:46 -31.36017 -64.20775 2333 ft 141 kts
2026-05-06 20:46 -31.35034 -64.20766 2150 ft 142 kts
2026-05-06 20:46 -31.34040 -64.20784 1949 ft 145 kts
2026-05-06 20:46 -31.33026 -64.20811 1733 ft 146 kts
2026-05-06 20:47 -31.32012 -64.20829 1644 ft 146 kts
2026-05-06 20:47 -31.31104 -64.20839 1620 ft 110 kts
2026-05-06 20:47 -31.30611 -64.20836 1618 ft 36 kts
2026-05-06 20:47 -31.30522 -64.20842 1615 ft 2 kts 264°
2026-05-06 20:48 -31.30603 -64.20845 1620 ft 18 kts 176°
2026-05-06 20:48 -31.30698 -64.20841 1619 ft 16 kts 178°
2026-05-06 20:48 -31.30808 -64.20838 1619 ft 17 kts 180°
2026-05-06 20:48 -31.30913 -64.20837 1616 ft 15 kts 179°
2026-05-06 20:49 -31.31002 -64.20835 1618 ft 14 kts 179°
2026-05-06 20:49 -31.31100 -64.20834 1620 ft 14 kts 179°
2026-05-06 20:49 -31.31201 -64.20833 1616 ft 14 kts 179°
2026-05-06 20:49 -31.31301 -64.20832 1620 ft 15 kts 179°
2026-05-06 20:50 -31.31406 -64.20831 1619 ft 16 kts 186°
2026-05-06 20:50 -31.31465 -64.20893 1618 ft 11 kts 263°
2026-05-06 20:50 -31.31467 -64.20989 1615 ft 13 kts 269°
2026-05-06 20:50 -31.31500 -64.21062 1617 ft 9 kts 219°
2026-05-06 20:51 -31.31525 -64.21075 1615 ft 1 kts 198°
2026-05-06 20:51 -31.31536 -64.21083 1617 ft 2 kts 218°
2026-05-06 20:51 -31.31564 -64.21082 1659 ft 8 kts 78°